DW7325 Weather Reports


Display with metric or nautical units.
time (UTC)temp
F
wind
direction
speed
MPH
gust
MPH
rain 1hr
in
rain 24hr
in
rain mn
in
humidity
%
barometer
mb
20260504004609 54 213 0.0 0.0 0.00 0.00 0.00 49 1014.0
20260504004500 54 213 0.0 0.0 0.00 0.00 0.00 49 1013.9
20260504004353 54 213 0.0 0.0 0.00 0.00 0.00 48 1013.9
20260504004249 54 213 0.0 0.0 0.00 0.00 0.00 48 1014.0
20260504004142 55 213 0.0 0.0 0.00 0.00 0.00 48 1013.9
20260504004035 55 213 0.0 0.0 0.00 0.00 0.00 48 1013.9
20260504003933 55 213 0.0 0.0 0.00 0.00 0.00 48 1013.9
20260504003826 55 213 0.0 0.0 0.00 0.00 0.00 48 1013.9
20260504003720 55 213 0.0 0.0 0.00 0.00 0.00 47 1014.0
20260504003615 55 213 0.0 0.0 0.00 0.00 0.00 46 1013.9
20260504003512 55 213 0.0 0.0 0.00 0.00 0.00 45 1013.9
20260504003408 55 213 0.0 0.0 0.00 0.00 0.00 44 1013.9
20260504003302 55 213 0.0 0.0 0.00 0.00 0.00 43 1013.9
20260504003155 55 213 0.0 0.0 0.00 0.00 0.00 43 1013.9
20260504003050 55 213 0.0 0.0 0.00 0.00 0.00 43 1013.8
20260504002946 56 213 0.0 0.0 0.00 0.00 0.00 42 1013.8
20260504002843 56 213 0.0 0.0 0.00 0.00 0.00 41 1013.8
20260504002739 56 213 0.0 0.0 0.00 0.00 0.00 41 1013.8
20260504002637 56 213 0.0 0.0 0.00 0.00 0.00 42 1013.9
20260504002311 56 213 0.0 0.0 0.00 0.00 0.00 43 1013.8
20260504002206 56 213 0.0 0.0 0.00 0.00 0.00 45 1013.8
20260504002102 56 213 0.0 0.0 0.00 0.00 0.00 45 1013.8
20260504001958 56 213 0.0 0.0 0.00 0.00 0.00 45 1013.9
20260504001853 56 213 0.0 0.0 0.00 0.00 0.00 45 1013.9
20260504001530 57 213 0.0 0.0 0.00 0.00 0.00 46 1013.9
20260504001426 57 213 0.0 0.0 0.00 0.00 0.00 45 1013.9
20260504001319 57 213 0.0 0.0 0.00 0.00 0.00 46 1013.9
20260504001213 57 213 0.0 0.0 0.00 0.00 0.00 46 1013.9
20260504001106 57 213 0.0 0.0 0.00 0.00 0.00 45 1013.9
20260504001003 57 213 0.0 0.0 0.00 0.00 0.00 44 1013.9
20260504000901 57 213 0.0 0.0 0.00 0.00 0.00 44 1013.9
20260504000754 57 213 0.0 0.0 0.00 0.00 0.00 44 1013.9
20260504000650 57 213 0.0 0.0 0.00 0.00 0.00 44 1013.9
20260504000547 57 213 0.0 0.0 0.00 0.00 0.00 44 1013.9
20260504000440 57 213 0.0 0.0 0.00 0.00 0.00 43 1013.9
20260504000335 57 213 0.0 0.0 0.00 0.00 0.00 43 1013.9
20260504000229 57 213 0.0 0.0 0.00 0.00 0.00 42 1013.9
20260504000126 57 213 0.0 0.0 0.00 0.00 0.00 41 1013.9
20260504000021 57 213 0.0 0.0 0.00 0.00 0.00 40 1013.9
20260503235657 58 213 0.0 0.0 0.00 0.00 0.00 41 1013.8
20260503235333 58 213 0.0 0.0 0.00 0.00 0.00 42 1013.8
20260503235226 58 213 0.0 0.0 0.00 0.00 0.00 42 1013.7
20260503234640 58 213 0.0 0.0 0.00 0.00 0.00 44 1013.7
20260503234534 58 213 0.0 0.0 0.00 0.00 0.00 44 1013.7
20260503234431 58 213 0.0 0.0 0.00 0.00 0.00 43 1013.7
20260503234326 58 213 0.0 0.0 0.00 0.00 0.00 43 1013.7
20260503234000 58 213 0.0 0.0 0.00 0.00 0.00 43 1013.7
20260503233416 59 213 0.0 0.0 0.00 0.00 0.00 42 1013.7
20260503233049 59 213 0.0 1.0 0.00 0.00 0.00 43 1013.6
20260503232945 59 212 0.0 1.0 0.00 0.00 0.00 42 1013.7
20260503232838 59 224 0.0 0.0 0.00 0.00 0.00 42 1013.7
20260503232732 59 224 0.0 0.0 0.00 0.00 0.00 42 1013.7
20260503232625 59 225 0.0 0.0 0.00 0.00 0.00 44 1013.7
20260503232519 59 42 0.0 0.0 0.00 0.00 0.00 44 1013.7
20260503231936 59 42 0.0 0.0 0.00 0.00 0.00 41 1013.6
20260503231611 59 288 0.0 2.0 0.00 0.00 0.00 44 1013.5
20260503231506 59 134 0.0 1.0 0.00 0.00 0.00 44 1013.5
20260503231403 60 156 0.0 1.0 0.00 0.00 0.00 43 1013.5
20260503231259 60 234 0.0 1.0 0.00 0.00 0.00 43 1013.5
20260503230938 60 69 0.0 0.0 0.00 0.00 0.00 42 1013.4
20260503230834 60 87 0.0 0.0 0.00 0.00 0.00 41 1013.4
20260503230729 60 87 0.0 0.0 0.00 0.00 0.00 41 1013.5
20260503230624 60 87 0.0 0.0 0.00 0.00 0.00 40 1013.5
20260503230301 60 38 0.0 0.0 0.00 0.00 0.00 36 1013.5
20260503230158 60 191 0.0 0.0 0.00 0.00 0.00 36 1013.4
20260503225830 60 215 0.0 0.0 0.00 0.00 0.00 36 1013.5
20260503225505 60 200 0.0 1.0 0.00 0.00 0.00 40 1013.4
20260503225359 60 156 0.0 1.0 0.00 0.00 0.00 39 1013.4
20260503225257 60 31 0.0 1.0 0.00 0.00 0.00 38 1013.4
20260503225152 60 235 0.0 1.0 0.00 0.00 0.00 36 1013.4
20260503225047 60 88 0.0 1.0 0.00 0.00 0.00 35 1013.4
20260503224943 60 275 0.0 1.0 0.00 0.00 0.00 36 1013.4
20260503224838 60 49 0.0 0.0 0.00 0.00 0.00 36 1013.5
20260503224735 60 35 0.0 0.0 0.00 0.00 0.00 36 1013.4
20260503224633 60 88 0.0 0.0 0.00 0.00 0.00 36 1013.5
20260503224527 60 88 0.0 0.0 0.00 0.00 0.00 36 1013.4
20260503224421 60 81 0.0 0.0 0.00 0.00 0.00 34 1013.5
20260503224319 60 81 0.0 0.0 0.00 0.00 0.00 33 1013.5
20260503223955 60 180 0.0 1.0 0.00 0.00 0.00 34 1013.5
20260503223848 60 214 0.0 1.0 0.00 0.00 0.00 34 1013.5
20260503223524 60 247 0.0 3.0 0.00 0.00 0.00 33 1013.5
20260503223200 60 201 0.0 3.0 0.00 0.00 0.00 33 1013.5
20260503223055 60 74 0.0 3.0 0.00 0.00 0.00 32 1013.5
20260503222951 60 0 0.0 3.0 0.00 0.00 0.00 32 1013.6
20260503222848 61 275 0.0 3.0 0.00 0.00 0.00 33 1013.6
20260503222744 61 109 0.0 3.0 0.00 0.00 0.00 33 1013.6
20260503222418 61 180 0.0 3.0 0.00 0.00 0.00 32 1013.6
20260503222313 61 187 0.0 3.0 0.00 0.00 0.00 34 1013.6
20260503222206 61 144 0.0 3.0 0.00 0.00 0.00 32 1013.6
20260503222103 61 171 0.0 3.0 0.00 0.00 0.00 30 1013.6
20260503221735 61 26 0.0 0.0 0.00 0.00 0.00 32 1013.5
20260503221629 61 23 0.0 0.0 0.00 0.00 0.00 32 1013.5
20260503221523 61 348 0.0 0.0 0.00 0.00 0.00 32 1013.6
20260503221418 61 348 0.0 2.0 0.00 0.00 0.00 32 1013.5
20260503221311 61 348 0.0 2.0 0.00 0.00 0.00 32 1013.6
20260503221209 61 302 0.0 2.0 0.00 0.00 0.00 32 1013.6
20260503221102 61 171 0.0 2.0 0.00 0.00 0.00 31 1013.6
20260503220959 61 242 0.0 2.0 0.00 0.00 0.00 31 1013.6
20260503220852 61 93 0.0 2.0 0.00 0.00 0.00 31 1013.6
20260503220746 61 34 0.0 2.0 0.00 0.00 0.00 32 1013.6
20260503220643 61 13 0.0 2.0 0.00 0.00 0.00 34 1013.6
20260503220541 61 0 1.0 8.0 0.00 0.00 0.00 35 1013.7
20260503220439 61 0 1.0 8.0 0.00 0.00 0.00 36 1013.7
20260503220334 61 31 1.0 8.0 0.00 0.00 0.00 33 1013.7
20260503220232 61 151 1.0 8.0 0.00 0.00 0.00 35 1013.7
20260503220128 61 81 1.0 8.0 0.00 0.00 0.00 35 1013.7
20260503220026 61 326 1.0 8.0 0.00 0.00 0.00 35 1013.7
20260503215921 61 321 1.0 8.0 0.00 0.00 0.00 36 1013.7
20260503215817 61 311 1.0 8.0 0.00 0.00 0.00 36 1013.7
20260503215714 61 262 1.0 8.0 0.00 0.00 0.00 35 1013.7
20260503215610 61 126 1.0 8.0 0.00 0.00 0.00 35 1013.7
20260503215505 61 268 1.0 8.0 0.00 0.00 0.00 34 1013.7
20260503215401 61 253 1.0 8.0 0.00 0.00 0.00 34 1013.6
20260503215258 61 186 1.0 8.0 0.00 0.00 0.00 33 1013.6
20260503215150 61 254 1.0 8.0 0.00 0.00 0.00 33 1013.6
20260503214827 61 261 0.0 8.0 0.00 0.00 0.00 33 1013.6
20260503214723 61 19 0.0 8.0 0.00 0.00 0.00 33 1013.6
20260503214620 61 38 0.0 8.0 0.00 0.00 0.00 33 1013.7
20260503214511 61 235 0.0 4.0 0.00 0.00 0.00 33 1013.7
20260503214408 61 84 0.0 4.0 0.00 0.00 0.00 34 1013.6
20260503214301 61 109 0.0 4.0 0.00 0.00 0.00 33 1013.7
20260503213934 61 168 1.0 4.0 0.00 0.00 0.00 33 1013.7
20260503213827 61 164 1.0 4.0 0.00 0.00 0.00 33 1013.6
20260503213724 61 5 1.0 4.0 0.00 0.00 0.00 32 1013.6
20260503213357 61 263 1.0 4.0 0.00 0.00 0.00 31 1013.7
20260503213251 61 334 1.0 4.0 0.00 0.00 0.00 31 1013.7
20260503213147 61 254 1.0 4.0 0.00 0.00 0.00 31 1013.7
20260503213044 61 225 1.0 4.0 0.00 0.00 0.00 31 1013.8
20260503212941 61 129 1.0 4.0 0.00 0.00 0.00 33 1013.8
20260503212835 61 325 0.0 4.0 0.00 0.00 0.00 33 1013.8
20260503212731 61 294 0.0 4.0 0.00 0.00 0.00 33 1013.8
20260503212626 61 355 0.0 3.0 0.00 0.00 0.00 34 1013.8
20260503212520 61 348 0.0 3.0 0.00 0.00 0.00 34 1013.8
20260503212155 61 5 0.0 3.0 0.00 0.00 0.00 34 1013.8
20260503212050 61 221 0.0 3.0 0.00 0.00 0.00 33 1013.9
20260503211945 61 194 0.0 3.0 0.00 0.00 0.00 33 1013.8
20260503211840 61 96 0.0 3.0 0.00 0.00 0.00 33 1013.8
20260503211509 61 136 1.0 5.0 0.00 0.00 0.00 33 1013.8
20260503211403 61 31 1.0 5.0 0.00 0.00 0.00 33 1013.8
20260503211259 61 254 1.0 5.0 0.00 0.00 0.00 33 1013.8
20260503211154 61 247 1.0 5.0 0.00 0.00 0.00 33 1013.8
20260503211049 61 128 1.0 5.0 0.00 0.00 0.00 34 1013.7
20260503210947 61 129 1.0 5.0 0.00 0.00 0.00 33 1013.8
20260503210840 61 163 1.0 5.0 0.00 0.00 0.00 33 1013.8
20260503210738 61 140 1.0 5.0 0.00 0.00 0.00 32 1013.8
20260503210635 61 102 1.0 5.0 0.00 0.00 0.00 32 1013.9
20260503210308 61 234 1.0 5.0 0.00 0.00 0.00 31 1013.8
20260503210204 61 229 1.0 5.0 0.00 0.00 0.00 30 1013.9
20260503210057 61 192 1.0 5.0 0.00 0.00 0.00 30 1013.9
20260503205954 61 140 1.0 5.0 0.00 0.00 0.00 30 1013.9
20260503205848 61 232 1.0 5.0 0.00 0.00 0.00 31 1013.9
20260503205745 61 5 1.0 5.0 0.00 0.00 0.00 29 1013.9
20260503205642 61 140 1.0 5.0 0.00 0.00 0.00 31 1014.0
20260503205535 61 298 0.0 4.0 0.00 0.00 0.00 31 1014.0
20260503205427 61 303 0.0 4.0 0.00 0.00 0.00 30 1014.0
20260503205323 61 126 0.0 4.0 0.00 0.00 0.00 30 1013.9
20260503205218 61 178 0.0 4.0 0.00 0.00 0.00 30 1013.9
20260503205115 61 209 0.0 4.0 0.00 0.00 0.00 31 1013.9
20260503204750 61 121 0.0 11.0 0.00 0.00 0.00 30 1013.9
20260503204642 61 46 0.0 11.0 0.00 0.00 0.00 32 1014.0
20260503204540 61 238 0.0 11.0 0.00 0.00 0.00 33 1014.0
20260503204216 61 214 1.0 11.0 0.00 0.00 0.00 31 1013.9
20260503204114 61 24 0.0 11.0 0.00 0.00 0.00 30 1014.0
20260503204009 61 117 0.0 11.0 0.00 0.00 0.00 30 1014.0
20260503203902 61 9 1.0 11.0 0.00 0.00 0.00 31 1014.0
20260503203539 61 278 1.0 11.0 0.00 0.00 0.00 32 1014.1
20260503203217 61 262 1.0 11.0 0.00 0.00 0.00 33 1014.2
20260503203114 61 247 1.0 11.0 0.00 0.00 0.00 32 1014.1
20260503203009 61 200 1.0 11.0 0.00 0.00 0.00 32 1014.1
20260503202906 61 314 1.0 5.0 0.00 0.00 0.00 32 1014.1
20260503202540 61 96 1.0 5.0 0.00 0.00 0.00 33 1014.1
20260503202438 61 308 1.0 5.0 0.00 0.00 0.00 33 1014.2
20260503202332 61 126 1.0 4.0 0.00 0.00 0.00 32 1014.2
20260503202009 61 331 1.0 5.0 0.00 0.00 0.00 35 1014.2
20260503201906 61 276 1.0 5.0 0.00 0.00 0.00 33 1014.2
20260503201803 61 171 1.0 5.0 0.00 0.00 0.00 33 1014.1
20260503201659 61 350 1.0 5.0 0.00 0.00 0.00 32 1014.1
20260503201552 61 338 1.0 5.0 0.00 0.00 0.00 32 1014.1
20260503201223 61 306 1.0 5.0 0.00 0.00 0.00 32 1014.2
20260503200637 61 19 1.0 6.0 0.00 0.00 0.00 33 1014.2
20260503200531 62 256 1.0 6.0 0.00 0.00 0.00 32 1014.2
20260503200424 62 313 1.0 6.0 0.00 0.00 0.00 32 1014.2
20260503200320 62 284 1.0 6.0 0.00 0.00 0.00 34 1014.2
20260503200216 62 107 1.0 6.0 0.00 0.00 0.00 34 1014.3
20260503200112 62 288 1.0 6.0 0.00 0.00 0.00 34 1014.3
20260503200007 61 120 1.0 6.0 0.00 0.00 0.00 34 1014.4
20260503195902 61 249 1.0 6.0 0.00 0.00 0.00 34 1014.4
20260503195759 61 127 1.0 6.0 0.00 0.00 0.00 34 1014.4
20260503195652 61 211 1.0 6.0 0.00 0.00 0.00 34 1014.5
20260503195322 61 34 1.0 6.0 0.00 0.00 0.00 33 1014.5
20260503194951 61 163 0.0 5.0 0.00 0.00 0.00 33 1014.7
20260503194849 61 105 1.0 5.0 0.00 0.00 0.00 33 1014.7
20260503194742 61 126 1.0 5.0 0.00 0.00 0.00 32 1014.7
20260503194156 60 28 1.0 12.0 0.00 0.00 0.00 33 1014.9
20260503194050 60 261 1.0 12.0 0.00 0.00 0.00 32 1014.9
20260503193944 61 331 1.0 12.0 0.00 0.00 0.00 33 1014.9
20260503193841 61 15 1.0 12.0 0.00 0.00 0.00 33 1014.8
20260503193739 61 264 1.0 12.0 0.00 0.00 0.00 32 1014.9
20260503193635 61 270 2.0 12.0 0.00 0.00 0.00 34 1014.9
20260503193531 61 236 2.0 12.0 0.00 0.00 0.00 33 1014.9
20260503193426 61 296 2.0 12.0 0.00 0.00 0.00 32 1014.9
20260503193321 61 237 2.0 12.0 0.00 0.00 0.00 32 1014.9
20260503193216 61 82 2.0 12.0 0.00 0.00 0.00 31 1014.9
20260503193109 61 155 2.0 12.0 0.00 0.00 0.00 31 1014.9
20260503193003 61 173 2.0 12.0 0.00 0.00 0.00 32 1015.0
20260503192857 62 144 2.0 12.0 0.00 0.00 0.00 32 1014.9
20260503192752 62 188 2.0 12.0 0.00 0.00 0.00 32 1015.0
20260503192646 62 258 1.0 12.0 0.00 0.00 0.00 33 1015.2
20260503192541 62 222 2.0 12.0 0.00 0.00 0.00 33 1015.0
20260503192435 62 100 1.0 12.0 0.00 0.00 0.00 33 1015.0
20260503192333 62 262 1.0 12.0 0.00 0.00 0.00 34 1015.0
20260503192228 62 71 1.0 7.0 0.00 0.00 0.00 31 1015.0
20260503192123 62 229 2.0 7.0 0.00 0.00 0.00 31 1015.0
20260503192016 61 111 1.0 7.0 0.00 0.00 0.00 32 1015.0
20260503191913 61 148 1.0 7.0 0.00 0.00 0.00 32 1015.1
20260503191810 61 200 1.0 7.0 0.00 0.00 0.00 32 1015.0
20260503191445 62 161 2.0 8.0 0.00 0.00 0.00 31 1015.2
20260503191341 62 238 2.0 8.0 0.00 0.00 0.00 33 1015.3
20260503191234 61 103 2.0 8.0 0.00 0.00 0.00 33 1015.3
20260503191128 61 347 2.0 8.0 0.00 0.00 0.00 32 1015.3
20260503191025 61 267 2.0 8.0 0.00 0.00 0.00 32 1015.3
20260503190919 61 317 2.0 8.0 0.00 0.00 0.00 32 1015.3
20260503190813 61 231 2.0 8.0 0.00 0.00 0.00 31 1015.3
20260503190709 61 104 2.0 8.0 0.00 0.00 0.00 30 1015.3
20260503190604 62 236 2.0 8.0 0.00 0.00 0.00 30 1015.4
20260503190455 62 153 1.0 8.0 0.00 0.00 0.00 32 1015.5
20260503190348 62 247 1.0 8.0 0.00 0.00 0.00 34 1015.4
20260503190246 61 200 1.0 8.0 0.00 0.00 0.00 34 1015.4
20260503190141 61 255 1.0 8.0 0.00 0.00 0.00 34 1015.4
20260503190033 62 320 1.0 8.0 0.00 0.00 0.00 33 1015.4
20260503185926 62 58 1.0 8.0 0.00 0.00 0.00 34 1015.5
20260503185821 62 22 1.0 8.0 0.00 0.00 0.00 33 1015.5
20260503185455 61 38 1.0 7.0 0.00 0.00 0.00 33 1015.5
20260503185352 61 114 1.0 7.0 0.00 0.00 0.00 32 1015.5
20260503185026 62 344 1.0 7.0 0.00 0.00 0.00 34 1015.4
20260503184703 61 264 1.0 7.0 0.00 0.00 0.00 34 1015.5
20260503184557 61 89 1.0 7.0 0.00 0.00 0.00 33 1015.5
20260503184456 60 103 1.0 7.0 0.00 0.00 0.00 32 1015.5
20260503184353 61 86 2.0 7.0 0.00 0.00 0.00 32 1015.6
20260503184249 61 146 2.0 7.0 0.00 0.00 0.00 33 1015.6
20260503183701 61 323 1.0 5.0 0.00 0.00 0.00 34 1015.6
20260503183556 61 279 1.0 5.0 0.00 0.00 0.00 34 1015.6
20260503183452 60 322 1.0 5.0 0.00 0.00 0.00 33 1015.6
20260503183350 61 302 1.0 7.0 0.00 0.00 0.00 34 1015.6
20260503183246 60 11 1.0 7.0 0.00 0.00 0.00 35 1015.6
20260503182923 61 152 1.0 7.0 0.00 0.00 0.00 32 1015.6
20260503182815 61 302 1.0 7.0 0.00 0.00 0.00 35 1015.6
20260503182710 60 274 1.0 7.0 0.00 0.00 0.00 35 1015.6
20260503182603 60 86 1.0 7.0 0.00 0.00 0.00 33 1015.6
20260503182458 60 20 1.0 7.0 0.00 0.00 0.00 34 1015.6
20260503182355 60 106 1.0 7.0 0.00 0.00 0.00 33 1015.6
20260503182253 60 269 1.0 7.0 0.00 0.00 0.00 34 1015.6
20260503181708 61 207 1.0 7.0 0.00 0.00 0.00 35 1015.7
20260503181341 61 21 1.0 6.0 0.00 0.00 0.00 34 1015.7
20260503181235 60 234 1.0 6.0 0.00 0.00 0.00 36 1015.7
20260503181133 60 250 1.0 6.0 0.00 0.00 0.00 36 1015.8
20260503181031 60 17 1.0 6.0 0.00 0.00 0.00 34 1015.7
20260503180926 60 66 1.0 9.0 0.00 0.00 0.00 33 1015.7
20260503180820 60 40 1.0 9.0 0.00 0.00 0.00 35 1015.8
20260503180717 60 259 1.0 9.0 0.00 0.00 0.00 37 1015.9
20260503180612 60 0 0.0 9.0 0.00 0.00 0.00 35 1015.8
20260503180249 60 111 1.0 9.0 0.00 0.00 0.00 34 1015.9
20260503175923 59 226 1.0 9.0 0.00 0.00 0.00 35 1015.8
20260503175820 59 188 2.0 9.0 0.00 0.00 0.00 37 1015.8
20260503175459 58 211 2.0 9.0 0.00 0.00 0.00 35 1015.8
20260503175354 59 82 1.0 9.0 0.00 0.00 0.00 34 1015.8
20260503175248 59 273 1.0 9.0 0.00 0.00 0.00 33 1015.9
20260503174438 60 249 1.0 9.0 0.00 0.00 0.00 34 1015.9
20260503174334 60 269 1.0 9.0 0.00 0.00 0.00 35 1015.8
20260503174228 60 26 1.0 9.0 0.00 0.00 0.00 35 1015.8
20260503174126 60 342 1.0 9.0 0.00 0.00 0.00 36 1015.9
20260503174019 61 282 1.0 9.0 0.00 0.00 0.00 36 1015.9
20260503173914 61 42 1.0 9.0 0.00 0.00 0.00 34 1016.0
20260503173811 61 178 1.0 9.0 0.00 0.00 0.00 36 1015.9
20260503173448 60 168 2.0 9.0 0.00 0.00 0.00 34 1016.1
20260503173347 59 184 2.0 9.0 0.00 0.00 0.00 34 1016.1
20260503173240 59 257 2.0 9.0 0.00 0.00 0.00 34 1016.1
20260503173132 60 115 2.0 9.0 0.00 0.00 0.00 35 1016.1
20260503172811 59 36 2.0 6.0 0.00 0.00 0.00 37 1016.1
20260503172703 59 271 1.0 6.0 0.00 0.00 0.00 38 1016.1
20260503172600 59 338 1.0 6.0 0.00 0.00 0.00 35 1016.1
20260503172454 59 76 1.0 6.0 0.00 0.00 0.00 37 1016.1
20260503172349 59 291 1.0 6.0 0.00 0.00 0.00 37 1016.1
20260503172245 58 293 1.0 6.0 0.00 0.00 0.00 36 1016.1
20260503172142 58 228 1.0 6.0 0.00 0.00 0.00 38 1016.1
20260503171818 58 126 1.0 6.0 0.00 0.00 0.00 37 1016.2
20260503171449 58 268 1.0 6.0 0.00 0.00 0.00 36 1016.4
20260503171343 58 284 1.0 6.0 0.00 0.00 0.00 36 1016.3
20260503171020 59 15 1.0 6.0 0.00 0.00 0.00 37 1016.3
20260503170653 58 240 1.0 6.0 0.00 0.00 0.00 39 1016.4
20260503170550 58 263 2.0 6.0 0.00 0.00 0.00 38 1016.4
20260503170447 58 355 2.0 6.0 0.00 0.00 0.00 40 1016.4
20260503170341 58 63 2.0 6.0 0.00 0.00 0.00 38 1016.4
20260503170238 58 340 2.0 6.0 0.00 0.00 0.00 37 1016.5
20260503170136 58 35 2.0 8.0 0.00 0.00 0.00 37 1016.5
20260503160208 59 338 1.0 6.0 0.00 0.00 0.00 36 1017.2
20260503160105 59 300 1.0 6.0 0.00 0.00 0.00 37 1017.1
20260503150945 57 348 1.0 8.0 0.00 0.00 0.00 41 1017.5
20260503150839 57 26 1.0 8.0 0.00 0.00 0.00 40 1017.5
20260503150734 57 321 1.0 8.0 0.00 0.00 0.00 42 1017.4
20260503150629 57 221 1.0 8.0 0.00 0.00 0.00 41 1017.5
20260503150526 57 288 1.0 8.0 0.00 0.00 0.00 40 1017.4
20260503150424 57 257 1.0 8.0 0.00 0.00 0.00 42 1017.4
20260503150320 57 305 1.0 8.0 0.00 0.00 0.00 39 1017.4
20260503150212 57 176 1.0 8.0 0.00 0.00 0.00 40 1017.4
20260503150108 57 345 2.0 8.0 0.00 0.00 0.00 40 1017.4
20260503140109 53 21 1.0 5.0 0.00 0.00 0.00 48 1017.6
20260503130951 48 329 2.0 9.0 0.00 0.00 0.00 55 1017.8
20260503130846 48 33 1.0 9.0 0.00 0.00 0.00 55 1017.7
20260503130740 48 77 1.0 9.0 0.00 0.00 0.00 55 1017.7
20260503130636 48 348 1.0 9.0 0.00 0.00 0.00 55 1017.7
20260503130530 48 30 2.0 10.0 0.00 0.00 0.00 56 1017.7
20260503130422 48 265 1.0 10.0 0.00 0.00 0.00 56 1017.8
20260503130317 48 30 1.0 10.0 0.00 0.00 0.00 56 1017.8
20260503130213 48 0 1.0 10.0 0.00 0.00 0.00 56 1017.8
20260503130108 48 38 1.0 10.0 0.00 0.00 0.00 57 1017.7
20260503110732 40 82 0.0 0.0 0.00 0.00 0.00 78 1016.5
20260503110155 40 153 0.0 1.0 0.00 0.00 0.00 79 1016.4
20260503100245 41 125 0.0 0.0 0.00 0.00 0.00 74 1015.6
20260503100139 41 122 0.0 0.0 0.00 0.00 0.00 74 1015.6
20260503090448 41 34 0.0 1.0 0.00 0.00 0.00 73 1015.1
20260503090343 41 75 0.0 1.0 0.00 0.00 0.00 74 1015.1
20260503090239 41 336 0.0 1.0 0.00 0.00 0.00 74 1015.1
20260503090131 41 316 0.0 0.0 0.00 0.00 0.00 73 1015.1
20260503081311 41 32 0.0 1.0 0.00 0.00 0.00 73 1014.6
20260503081208 41 5 0.0 1.0 0.00 0.00 0.00 73 1014.6
20260503081100 41 34 0.0 1.0 0.00 0.00 0.00 73 1014.6
20260503080954 41 32 0.0 1.0 0.00 0.00 0.00 73 1014.7
20260503080847 41 22 0.0 1.0 0.00 0.00 0.00 73 1014.6
20260503080523 41 143 0.0 1.0 0.00 0.00 0.00 73 1014.6
20260503080420 41 67 0.0 0.0 0.00 0.00 0.00 73 1014.6
20260503080313 41 67 0.0 0.0 0.00 0.00 0.00 73 1014.6
20260503080210 41 67 0.0 0.0 0.00 0.00 0.00 73 1014.6
20260503072528 42 123 0.0 0.0 0.00 0.00 0.00 71 1014.5
20260503072425 42 123 0.0 0.0 0.00 0.00 0.00 70 1014.4
20260503072321 42 123 0.0 0.0 0.00 0.00 0.00 70 1014.4
20260503072215 42 123 0.0 1.0 0.00 0.00 0.00 70 1014.4
20260503072109 42 123 0.0 1.0 0.00 0.00 0.00 70 1014.4
20260503072006 42 123 0.0 1.0 0.00 0.00 0.00 70 1014.4
20260503071901 42 146 0.0 0.0 0.00 0.00 0.00 70 1014.4
20260503071755 42 82 0.0 0.0 0.00 0.00 0.00 69 1014.4
20260503071650 42 80 0.0 0.0 0.00 0.00 0.00 69 1014.3
20260503071544 43 80 0.0 0.0 0.00 0.00 0.00 68 1014.4
20260503071442 43 136 0.0 0.0 0.00 0.00 0.00 67 1014.3
20260503071335 43 136 0.0 1.0 0.00 0.00 0.00 67 1014.3
20260503071015 43 292 0.0 0.0 0.00 0.00 0.00 66 1014.3
20260503070912 43 292 0.0 0.0 0.00 0.00 0.00 66 1014.3
20260503070804 43 292 0.0 0.0 0.00 0.00 0.00 66 1014.3
20260503070702 43 292 0.0 0.0 0.00 0.00 0.00 66 1014.2
20260503070336 43 292 0.0 0.0 0.00 0.00 0.00 66 1014.2
20260503060257 46 346 0.0 0.0 0.00 0.00 0.00 62 1013.9
20260503060151 46 346 0.0 0.0 0.00 0.00 0.00 61 1013.8
20260503055049 46 22 0.0 0.0 0.00 0.00 0.00 60 1013.9
20260503054943 46 22 0.0 0.0 0.00 0.00 0.00 60 1013.9
20260503054836 46 22 0.0 0.0 0.00 0.00 0.00 60 1013.9
20260503054731 47 22 0.0 0.0 0.00 0.00 0.00 59 1013.9
20260503054627 47 343 0.0 0.0 0.00 0.00 0.00 60 1013.9
20260503054522 47 343 0.0 3.0 0.00 0.00 0.00 60 1013.9
20260503054419 47 343 0.0 3.0 0.00 0.00 0.00 59 1013.9
20260503054315 47 321 0.0 3.0 0.00 0.00 0.00 59 1013.9
20260503054211 47 333 0.0 0.0 0.00 0.00 0.00 59 1013.9
20260503054109 47 355 0.0 0.0 0.00 0.00 0.00 60 1013.9
20260503054005 47 355 0.0 0.0 0.00 0.00 0.00 60 1013.9
20260503053640 47 355 0.0 0.0 0.00 0.00 0.00 59 1013.9
20260503053538 47 355 0.0 0.0 0.00 0.00 0.00 59 1013.9
20260503053433 47 355 0.0 1.0 0.00 0.00 0.00 59 1013.9
20260503053329 47 24 0.0 2.0 0.00 0.00 0.00 58 1013.9
20260503053226 47 9 0.0 2.0 0.00 0.00 0.00 58 1013.9
20260503053122 47 9 0.0 2.0 0.00 0.00 0.00 58 1013.9
20260503053016 47 9 0.0 2.0 0.00 0.00 0.00 58 1013.9
20260503052651 47 342 0.0 2.0 0.00 0.00 0.00 59 1014.0
20260503052544 47 17 0.0 2.0 0.00 0.00 0.00 58 1013.9
20260503052442 47 117 0.0 2.0 0.00 0.00 0.00 58 1013.9
20260503052335 47 251 0.0 3.0 0.00 0.00 0.00 58 1013.9
20260503052231 47 43 0.0 3.0 0.00 0.00 0.00 58 1013.9
20260503051900 47 5 0.0 3.0 0.00 0.00 0.00 56 1013.9
20260503051756 47 5 0.0 3.0 0.00 0.00 0.00 57 1013.9
20260503051653 47 25 0.0 3.0 0.00 0.00 0.00 57 1013.9
20260503051547 48 304 0.0 3.0 0.00 0.00 0.00 57 1013.9
20260503051444 48 271 0.0 3.0 0.00 0.00 0.00 57 1013.9
20260503051339 48 261 0.0 3.0 0.00 0.00 0.00 57 1013.8
20260503051236 48 335 0.0 3.0 0.00 0.00 0.00 57 1013.9
20260503051129 48 300 0.0 3.0 0.00 0.00 0.00 57 1013.8
20260503051022 48 79 0.0 3.0 0.00 0.00 0.00 57 1013.9
20260503050915 48 89 0.0 3.0 0.00 0.00 0.00 57 1013.8
20260503050812 48 112 0.0 3.0 0.00 0.00 0.00 57 1013.8
20260503050445 48 25 0.0 3.0 0.00 0.00 0.00 58 1013.8
20260503050339 48 0 0.0 1.0 0.00 0.00 0.00 57 1013.8
20260503050232 48 355 0.0 0.0 0.00 0.00 0.00 58 1013.8
20260503045909 48 14 0.0 4.0 0.00 0.00 0.00 57 1013.9
20260503045805 48 306 0.0 4.0 0.00 0.00 0.00 57 1013.9
20260503045701 48 298 1.0 4.0 0.00 0.00 0.00 56 1013.9
20260503045555 48 11 1.0 4.0 0.00 0.00 0.00 58 1013.9
20260503045449 48 44 0.0 4.0 0.00 0.00 0.00 59 1014.0
20260503045343 48 336 0.0 4.0 0.00 0.00 0.00 58 1013.9
20260503045238 48 323 0.0 4.0 0.00 0.00 0.00 58 1013.9
20260503045135 48 338 0.0 3.0 0.00 0.00 0.00 58 1013.9
20260503045030 48 348 0.0 3.0 0.00 0.00 0.00 57 1013.9
20260503044702 48 259 0.0 3.0 0.00 0.00 0.00 57 1014.0
20260503044337 48 327 0.0 2.0 0.00 0.00 0.00 57 1014.0
20260503044229 48 325 0.0 3.0 0.00 0.00 0.00 57 1014.0
20260503044125 48 129 0.0 3.0 0.00 0.00 0.00 57 1014.0
20260503044023 48 344 0.0 3.0 0.00 0.00 0.00 57 1014.0
20260503043658 48 5 0.0 3.0 0.00 0.00 0.00 58 1014.0
20260503043335 48 355 0.0 3.0 0.00 0.00 0.00 58 1014.0
20260503043231 48 346 0.0 3.0 0.00 0.00 0.00 57 1013.9
20260503043129 48 261 0.0 3.0 0.00 0.00 0.00 57 1014.0
20260503042804 48 313 0.0 3.0 0.00 0.00 0.00 56 1014.0
20260503042657 48 9 0.0 3.0 0.00 0.00 0.00 57 1014.0
20260503042551 48 9 0.0 3.0 0.00 0.00 0.00 58 1014.0
20260503042446 48 294 0.0 3.0 0.00 0.00 0.00 58 1014.0
20260503042339 48 355 0.0 3.0 0.00 0.00 0.00 58 1014.0
20260503042234 48 273 0.0 2.0 0.00 0.00 0.00 58 1014.1
20260503042131 48 273 0.0 2.0 0.00 0.00 0.00 58 1014.0
20260503042026 49 197 0.0 1.0 0.00 0.00 0.00 57 1014.0
20260503041923 49 333 0.0 2.0 0.00 0.00 0.00 57 1014.0
20260503041817 49 297 0.0 2.0 0.00 0.00 0.00 58 1014.0
20260503041451 49 47 0.0 2.0 0.00 0.00 0.00 58 1013.9
20260503041345 49 350 0.0 2.0 0.00 0.00 0.00 58 1014.0
20260503041019 49 0 0.0 3.0 0.00 0.00 0.00 59 1013.9
20260503040653 49 346 0.0 3.0 0.00 0.00 0.00 58 1013.8
20260503040548 49 348 0.0 3.0 0.00 0.00 0.00 58 1013.8
20260503040445 49 348 0.0 3.0 0.00 0.00 0.00 57 1013.8
20260503040340 49 26 0.0 3.0 0.00 0.00 0.00 56 1013.8
20260503040235 49 301 0.0 3.0 0.00 0.00 0.00 57 1013.8
20260503040131 49 306 0.0 3.0 0.00 0.00 0.00 57 1013.8
20260503035803 49 40 0.0 3.0 0.00 0.00 0.00 58 1013.7
20260503035700 49 262 0.0 3.0 0.00 0.00 0.00 58 1013.7
20260503035337 49 355 0.0 3.0 0.00 0.00 0.00 57 1013.7
20260503035233 49 338 0.0 3.0 0.00 0.00 0.00 57 1013.7
20260503035129 49 338 0.0 3.0 0.00 0.00 0.00 58 1013.8
20260503035022 49 278 0.0 3.0 0.00 0.00 0.00 58 1013.8
20260503034915 49 342 0.0 1.0 0.00 0.00 0.00 58 1013.8
20260503034809 49 14 0.0 1.0 0.00 0.00 0.00 57 1013.8
20260503034702 49 355 0.0 1.0 0.00 0.00 0.00 56 1013.8
20260503033854 50 309 0.0 4.0 0.00 0.00 0.00 54 1013.8
20260503033752 50 304 0.0 4.0 0.00 0.00 0.00 54 1013.7
20260503033647 50 340 0.0 4.0 0.00 0.00 0.00 55 1013.7
20260503033320 50 327 0.0 4.0 0.00 0.00 0.00 55 1013.7
20260503033213 50 327 0.0 4.0 0.00 0.00 0.00 55 1013.7
20260503033106 50 252 0.0 4.0 0.00 0.00 0.00 55 1013.7
20260503033002 50 333 1.0 4.0 0.00 0.00 0.00 55 1013.7
20260503032854 50 335 0.0 4.0 0.00 0.00 0.00 55 1013.6
20260503032750 50 17 0.0 4.0 0.00 0.00 0.00 55 1013.7
20260503032648 50 5 0.0 4.0 0.00 0.00 0.00 55 1013.6
20260503032543 50 329 0.0 4.0 0.00 0.00 0.00 55 1013.6
20260503032438 50 9 0.0 4.0 0.00 0.00 0.00 55 1013.6
20260503032333 50 5 1.0 4.0 0.00 0.00 0.00 55 1013.6
20260503032228 50 341 1.0 4.0 0.00 0.00 0.00 55 1013.7
20260503031906 50 311 0.0 4.0 0.00 0.00 0.00 54 1013.6
20260503031800 50 267 0.0 4.0 0.00 0.00 0.00 54 1013.6
20260503031653 50 311 0.0 7.0 0.00 0.00 0.00 53 1013.6
20260503031548 51 20 0.0 7.0 0.00 0.00 0.00 54 1013.6
20260503031441 51 355 0.0 7.0 0.00 0.00 0.00 55 1013.6
20260503031338 51 310 0.0 7.0 0.00 0.00 0.00 55 1013.6
20260503031235 51 311 0.0 7.0 0.00 0.00 0.00 54 1013.6
20260503031133 51 355 0.0 7.0 0.00 0.00 0.00 54 1013.6
20260503031029 51 312 0.0 7.0 0.00 0.00 0.00 53 1013.6
20260503030926 51 292 0.0 7.0 0.00 0.00 0.00 53 1013.6
20260503030823 51 9 0.0 7.0 0.00 0.00 0.00 53 1013.6
20260503030717 51 13 0.0 7.0 0.00 0.00 0.00 53 1013.6
20260503030610 51 13 0.0 7.0 0.00 0.00 0.00 54 1013.6
20260503030505 51 282 1.0 7.0 0.00 0.00 0.00 53 1013.6
20260503030400 51 292 1.0 7.0 0.00 0.00 0.00 53 1013.6
20260503030253 51 351 1.0 7.0 0.00 0.00 0.00 53 1013.6
20260503030149 51 313 1.0 7.0 0.00 0.00 0.00 54 1013.6
20260503030041 51 14 1.0 7.0 0.00 0.00 0.00 53 1013.5
20260503025935 51 53 1.0 7.0 0.00 0.00 0.00 53 1013.5
20260503025832 51 55 1.0 7.0 0.00 0.00 0.00 53 1013.6
20260503025505 51 11 0.0 6.0 0.00 0.00 0.00 54 1013.6
20260503025359 51 343 0.0 6.0 0.00 0.00 0.00 54 1013.6
20260503025255 51 350 1.0 6.0 0.00 0.00 0.00 53 1013.6
20260503025151 51 0 1.0 6.0 0.00 0.00 0.00 53 1013.6
20260503025044 51 329 1.0 6.0 0.00 0.00 0.00 54 1013.6
20260503024720 51 319 0.0 6.0 0.00 0.00 0.00 55 1013.6
20260503024617 51 17 0.0 6.0 0.00 0.00 0.00 55 1013.6
20260503024251 51 5 0.0 6.0 0.00 0.00 0.00 55 1013.6
20260503024143 51 273 0.0 5.0 0.00 0.00 0.00 57 1013.5
20260503024038 51 355 0.0 5.0 0.00 0.00 0.00 58 1013.6
20260503023932 51 306 0.0 5.0 0.00 0.00 0.00 58 1013.6
20260503023829 51 20 0.0 5.0 0.00 0.00 0.00 57 1013.5
20260503023727 51 269 0.0 5.0 0.00 0.00 0.00 58 1013.5
20260503023621 51 0 0.0 5.0 0.00 0.00 0.00 58 1013.5
20260503023517 51 312 0.0 5.0 0.00 0.00 0.00 58 1013.5
20260503023410 51 0 0.0 5.0 0.00 0.00 0.00 57 1013.5
20260503023042 51 304 0.0 5.0 0.00 0.00 0.00 59 1013.5
20260503022715 51 24 0.0 5.0 0.00 0.00 0.00 57 1013.5
20260503022607 51 45 0.0 5.0 0.00 0.00 0.00 57 1013.5
20260503022501 51 51 0.0 5.0 0.00 0.00 0.00 57 1013.5
20260503022354 51 87 0.0 5.0 0.00 0.00 0.00 57 1013.5
20260503022250 51 344 0.0 5.0 0.00 0.00 0.00 57 1013.5
20260503022147 51 290 0.0 5.0 0.00 0.00 0.00 58 1013.5
20260503022044 51 17 0.0 3.0 0.00 0.00 0.00 58 1013.5
20260503021941 51 351 0.0 3.0 0.00 0.00 0.00 59 1013.4
20260503021839 51 249 0.0 3.0 0.00 0.00 0.00 59 1013.5
20260503021735 51 304 0.0 1.0 0.00 0.00 0.00 58 1013.5
20260503021628 51 290 0.0 1.0 0.00 0.00 0.00 57 1013.5
20260503021303 51 10 0.0 1.0 0.00 0.00 0.00 58 1013.5
20260503021156 51 68 0.0 0.0 0.00 0.00 0.00 58 1013.5
20260503021050 51 68 0.0 0.0 0.00 0.00 0.00 58 1013.4
20260503020724 51 68 0.0 0.0 0.00 0.00 0.00 57 1013.5
20260503020618 51 68 0.0 0.0 0.00 0.00 0.00 58 1013.4
20260503020513 51 68 0.0 0.0 0.00 0.00 0.00 59 1013.4
20260503020408 51 68 0.0 0.0 0.00 0.00 0.00 61 1013.4
20260503020304 51 68 0.0 0.0 0.00 0.00 0.00 62 1013.4
20260503020157 51 68 0.0 0.0 0.00 0.00 0.00 62 1013.4
20260503020050 51 68 0.0 1.0 0.00 0.00 0.00 60 1013.4
20260503015948 51 68 0.0 1.0 0.00 0.00 0.00 60 1013.4
20260503015625 51 288 0.0 0.0 0.00 0.00 0.00 57 1013.4
20260503015521 51 312 0.0 0.0 0.00 0.00 0.00 57 1013.4
20260503015156 51 28 0.0 0.0 0.00 0.00 0.00 58 1013.4
20260503015049 51 28 0.0 0.0 0.00 0.00 0.00 58 1013.4
20260503014947 51 28 0.0 0.0 0.00 0.00 0.00 58 1013.4
20260503014840 51 28 0.0 0.0 0.00 0.00 0.00 58 1013.4
20260503014737 51 28 0.0 0.0 0.00 0.00 0.00 58 1013.4
20260503014636 51 28 0.0 0.0 0.00 0.00 0.00 58 1013.4
20260503014530 51 28 0.0 0.0 0.00 0.00 0.00 57 1013.3
20260503014427 51 28 0.0 1.0 0.00 0.00 0.00 57 1013.3
20260503014322 51 28 0.0 0.0 0.00 0.00 0.00 57 1013.3
20260503014216 51 28 0.0 0.0 0.00 0.00 0.00 57 1013.3
20260503014111 51 28 0.0 0.0 0.00 0.00 0.00 57 1013.2
20260503014006 51 25 0.0 0.0 0.00 0.00 0.00 57 1013.2
20260503013859 51 25 0.0 0.0 0.00 0.00 0.00 57 1013.2
20260503013756 51 25 0.0 0.0 0.00 0.00 0.00 56 1013.2
20260503013652 52 25 0.0 0.0 0.00 0.00 0.00 56 1013.2
20260503013547 52 17 0.0 0.0 0.00 0.00 0.00 57 1013.2
20260503013445 52 17 0.0 0.0 0.00 0.00 0.00 57 1013.1
20260503012858 52 15 0.0 0.0 0.00 0.00 0.00 56 1013.1
20260503012534 52 15 0.0 0.0 0.00 0.00 0.00 55 1013.1
20260503012428 52 15 0.0 0.0 0.00 0.00 0.00 55 1013.1
20260503012108 52 15 0.0 0.0 0.00 0.00 0.00 55 1013.0
20260503012002 52 15 0.0 0.0 0.00 0.00 0.00 55 1013.0
20260503011633 52 15 0.0 0.0 0.00 0.00 0.00 55 1013.0
20260503011528 52 15 0.0 0.0 0.00 0.00 0.00 55 1012.9
20260503011424 52 15 0.0 0.0 0.00 0.00 0.00 55 1012.9
20260503011319 52 15 0.0 0.0 0.00 0.00 0.00 55 1012.9
20260503010950 52 314 0.0 0.0 0.00 0.00 0.00 55 1012.9
20260503010847 52 314 0.0 0.0 0.00 0.00 0.00 55 1012.9
20260503010743 52 314 0.0 0.0 0.00 0.00 0.00 55 1012.8
20260503010640 52 314 0.0 0.0 0.00 0.00 0.00 55 1012.9
20260503010534 52 314 0.0 0.0 0.00 0.00 0.00 55 1012.8
20260503010426 52 314 0.0 0.0 0.00 0.00 0.00 57 1012.7
20260503010322 52 314 0.0 0.0 0.00 0.00 0.00 57 1012.8
20260503010218 52 314 0.0 0.0 0.00 0.00 0.00 56 1012.7
20260503005634 52 314 0.0 0.0 0.00 0.00 0.00 53 1012.6
20260503005529 52 314 0.0 0.0 0.00 0.00 0.00 53 1012.5
20260503005423 52 314 0.0 0.0 0.00 0.00 0.00 54 1012.6
20260503005320 52 314 0.0 0.0 0.00 0.00 0.00 54 1012.5
20260503005214 52 314 0.0 0.0 0.00 0.00 0.00 53 1012.5
20260503005108 52 314 0.0 0.0 0.00 0.00 0.00 54 1012.5
20260503004741 53 42 0.0 0.0 0.00 0.00 0.00 56 1012.5
20260503004632 53 42 0.0 1.0 0.00 0.00 0.00 54 1012.4